Regional Weather Roundup
Issued by NWS

Home | Current Version | Previous Version | Graphics & Text | Print | Product List | Glossary On
Versions: 1 2 3 4 5 6 7 8 9 10 11 12 13 14 15 16 17 18 19 20 21 22 23 24 25 26 27 28 29 30 31 32 33 34 35 36 37 38 39 40 41 42 43 44 45 46 47 48 49 50
000
ASUS43 KMKX 300821
RWRWI

WISCONSIN REGIONAL WEATHER ROUNDUP
NATIONAL WEATHER SERVICE MILWAUKEE/SULLIVAN WI
300 AM CDT MON MAY 30 2016

NOTE: "FAIR" INDICATES FEW OR NO CLOUDS BELOW 12,000 FEET WITH NO
SIGNIFICANT WEATHER AND/OR OBSTRUCTIONS TO VISIBILITY.

WIZ001-002-006>008-014>016-023>028-300900-
NORTHWEST WISCONSIN

CITY           SKY/WX    TMP DP  RH WIND       PRES   REMARKS
SUPERIOR ARPT  CLEAR     50  50 100 CALM      29.95S
ASHLAND        CLEAR     55  51  86 SW6       29.95R
HAYWARD        CLEAR     49  47  93 CALM      29.98R
SIREN          PTCLDY    51  49  95 CALM      29.98S
CUMBERLAND     CLEAR     54  54 100 CALM      29.99S
RICE LAKE      CLEAR     55  53  92 CALM      30.00S
CHETEK         FOG       54  54 100 CALM      29.99S VSB 1
LADYSMITH      CLEAR     55  54  96 CALM      30.00S
EAU CLAIRE     CLEAR     58  56  93 SW5       29.98R
MENOMONIE      CLEAR     57  54  89 CALM      29.99S
NEW RICHMOND     N/A     55  55 100 CALM      30.00S FOG
OSCEOLA        PTCLDY    53  53 100 CALM      30.02S
$$

WIZ003>005-009-010-017-018-300900-
NORTH CENTRAL WISCONSIN

CITY           SKY/WX    TMP DP  RH WIND       PRES   REMARKS
MANITOWISH WTR NOT AVBL
ARBOR VITAE      N/A     52  51  95 CALM      29.96S FOG
WOODRUFF         N/A     52  51  95 CALM      29.96S FOG
RHINELANDER    CLEAR     53  51  93 W5        29.98R
EAGLE RIVER      N/A     50  50 100 CALM      29.96R FOG
LAND O LAKES   CLEAR     50  50 100 CALM      29.96S
PHILLIPS       CLEAR     50  50 100 CALM      29.98R
TOMAHAWK       CLEAR     48  47  97 CALM      29.98S
MEDFORD        MOCLDY    53  53 100 CALM      29.98S
MERRILL        CLEAR     52  52 100 CALM      29.99R
$$

WIZ029-030-035-036-043>047-300900-
CENTRAL WISCONSIN

CITY           SKY/WX    TMP DP  RH WIND       PRES   REMARKS
WAUSAU         CLEAR     58  55  90 CALM      29.96S
MOSINEE        CLEAR     55  54  94 W3        29.99S
MARSHFIELD     CLEAR     58  54  86 CALM      29.98S
STEVENS POINT  PTCLDY    55  55 100 CALM      29.98S FOG
WAUPACA        PTCLDY    59  58  99 CALM      29.97F
WAUTOMA        NOT AVBL
WISC RAPIDS    PTCLDY    57  55  93 SW3       29.99F
CAMP DOUGLAS   PTCLDY    54  54 100 CALM      29.98S FOG
$$

WIZ011>013-019>022-031-037>040-048>050-300900-
NORTHEAST WISCONSIN

CITY           SKY/WX    TMP DP  RH WIND       PRES   REMARKS
ANTIGO         CLEAR     54  53  99 CALM      29.98S
SHAWANO        CLEAR     60  56  88 W3        29.96S
OCONTO         CLEAR    N/A N/A N/A CALM      29.94R
STURGEON BAY   NOT AVBL
GREEN BAY      CLEAR     62  56  80 W6        29.95S
MANITOWOC      CLEAR     62  57  83 W7        29.96S
APPLETON       CLEAR     59  55  88 W6        29.96S
CLINTONVILLE   PTCLDY    59  54  82 W8        29.96S
OSHKOSH        PTCLDY    63  57  81 W3        29.96F
$$

WIZ032>034-041-042-053>061-300900-
SOUTHWEST WISCONSIN

CITY           SKY/WX    TMP DP  RH WIND       PRES   REMARKS
LA CROSSE      CLEAR     62  58  86 S3        29.99R
SPARTA         CLEAR     53  53  99 CALM      30.00S
VIROQUA        CLEAR     62  58  89 CALM      30.01S
BOSCOBEL       CLEAR     56  55  97 CALM      29.99F FOG
PRAIRIE DU CHI CLEAR     58  56  92 CALM      29.99F
PLATTEVILLE    CLEAR     63  59  89 CALM      30.00S
$$

WIZ056-057-062-063-064-067-068-300900-
SOUTH CENTRAL WISCONSIN

CITY           SKY/WX    TMP DP  RH WIND       PRES   REMARKS
REEDSBURG      CLEAR     58  58 100 CALM      29.99S
BARABOO/DELLS  PTCLDY    58  55  91 CALM      29.99S
LONE ROCK      FOG       56  56 100 CALM      30.00S VSB 1/2
MINERAL POINT  PTCLDY    64  59  82 CALM      30.00F
MADISON        CLEAR     58  57  97 CALM      29.99S
MIDDLETON      CLEAR     61  60  96 CALM      30.00S
WATERTOWN      CLEAR     57  57 100 CALM      29.98F
MONROE         CLEAR     64  55  72 W10       30.01S
JANESVILLE     CLEAR     61  59  94 CALM      29.99F
$$

WIZ051-052-058>065-066-070>072-300900-
SOUTHEAST WISCONSIN

CITY           SKY/WX    TMP DP  RH WIND       PRES   REMARKS
MILWAUKEE      PTCLDY    66  56  70 NW5       29.98S
WAUKESHA       CLEAR     61  55  82 NW5       30.00S
MILWAUKEE/TIMM CLEAR     61  54  77 W3        29.99S
RACINE         PTCLDY    66  57  72 W5        30.00S
BURLINGTON     CLEAR     58  57  95 CALM      29.99F
KENOSHA        CLEAR     62  57  83 W5        29.99S
FOND DU LAC    PTCLDY    61  58  90 SW6       29.97F
SHEBOYGAN      CLEAR     58  55  90 SW6       29.97S
WEST BEND      CLEAR     59  57  94 CALM      29.99S
JUNEAU         CLEAR     59  57  93 CALM      30.00S
$$

LSZ147-162-300900-
LAKE SUPERIOR

STATION/POSITION TIME  TEMP    WIND        PRES    WAVE
                       AIR SEA DIR/SP/G            HT/PER
                 (UTC) (F)     (DEG/KT/KT) (MB)    (FT/S)
W MID LAKE BUOY  0750   44 38  250/  8/ 10 1012.4R   1
DEVILS ISLAND    0800   50     240/ 17/ 19 1013.2R
PORT WING        0707   58     200/  6/ 10 1013.5
SAXON HARBOR     0700   57     210/  7/ 10 1012.9R
$$

LMZ867-665-643>646-300900-
LAKE MICHIGAN

STATION/POSITION TIME  TEMP    WIND        PRES    WAVE
                       AIR SEA DIR/SP/G            HT/PER
                 (UTC) (F)     (DEG/KT/KT) (MB)    (FT/S)
CHAMBERS ISLAND  0700   63     210/  5/  8 1013.5S
N MID LAKE BUOY  0750   54 47  240/  8/ 10 1012.8S   1/ 4
NORTHPORT PIER   0700   63     270/  5/ 10 1013.2
KEWAUNEE LAKESHO 0700   63     300/  4/  5 1013.4F
SHEBOYGAN LAKESH 0800   64     250/  7/  8 1014.7F
PORT WASHINGTON  0740   66     290/  5/  7 1015.6S
S MID LAKE BUOY  0750   58 51  240/  8/  8 1014.7F   0
KENOSHA   LAKESH 0800   68     270/  8/ 10 1014.9F
$$

TC  - TEMPERATURE IN CELSIUS
VSB - VISIBILITY IN STATUTE MILES
WCI - WIND CHILL INDEX
HX  - HEAT INDEX




USA.gov is the U.S. government's official web portal to all federal, state and local government web resources and services.